Torna al catalogo

STARLINK-33607

AttivoComunicazioniVLEO
NORAD 63323·PAYLOAD·🇺🇸 United States

Lanciato Mar 18, 2025 da Cape Canaveral Space Force Station

Loading…

Prossimi Passaggi (prossime 24 ore)

TLE

AggiornatoSource: CelesTrak SupGP

Epoca: Sep 15, 2026, 02:49 UTC

1 63323C 25057S   26258.11784722 -.00025133  00000+0 -91037-3 0  2587
2 63323  43.0012  41.0294 0001473 266.7869 264.6874 15.27588780    17

Traccia STARLINK-33607 in tempo reale con AllMySat

Download on the App Store